DW9945 Weather Reports


time (UTC)temp
F
wind
direction
speed
knots
gust
knots
rain 1hr
in
rain 24hr
in
rain mn
in
humidity
%
barometer
mb
20260903022518 73 51 0.0 1.7 0.00 0.00 0.00 49 1019.5
20260903022018 74 51 1.7 4.3 0.00 0.00 0.00 49 1019.5
20260903021518 74 17 1.7 5.2 0.00 0.00 0.00 49 1019.5
20260903021009 73 10 0.9 2.6 0.00 0.00 0.00 49 1019.4
20260903020508 73 17 1.7 2.6 0.00 0.00 0.00 49 1019.5
20260903020019 74 27 2.6 4.3 0.00 0.00 0.00 48 1019.5
20260903015518 74 26 2.6 7.0 0.00 0.00 0.00 48 1019.5
20260903015018 74 22 4.3 7.8 0.00 0.00 0.00 48 1019.5
20260903014007 74 27 3.5 5.2 0.00 0.00 0.00 48 1019.6
20260903013018 73 19 2.6 5.2 0.00 0.00 0.00 48 1019.6
20260903012518 73 21 2.6 4.3 0.00 0.00 0.00 47 1019.6
20260903012018 74 22 2.6 4.3 0.00 0.00 0.00 46 1019.6
20260903010520 74 20 4.3 7.0 0.00 0.00 0.00 45 1019.6
20260903010008 74 11 5.2 7.8 0.00 0.00 0.00 45 1019.6
20260903004507 75 5 4.3 7.0 0.00 0.00 0.00 42 1019.6
20260903003507 75 9 5.2 10.4 0.00 0.00 0.00 40 1019.6
20260903003008 75 356 5.2 7.8 0.00 0.00 0.00 38 1019.6
20260903002507 75 17 5.2 7.8 0.00 0.00 0.00 37 1019.6
20260903002008 76 22 4.3 7.0 0.00 0.00 0.00 35 1019.6
20260903001507 76 29 4.3 7.0 0.00 0.00 0.00 34 1019.6
20260903001007 76 21 4.3 10.4 0.00 0.00 0.00 33 1019.7
20260903000007 76 10 5.2 10.4 0.00 0.00 0.00 32 1019.5
20260902235007 76 26 2.6 5.2 0.00 0.00 0.00 32 1019.5
20260902234007 76 32 3.5 5.2 0.00 0.00 0.00 33 1019.4
20260902233507 76 25 3.5 7.8 0.00 0.00 0.00 34 1019.5
20260902232507 74 49 2.6 2.6 0.00 0.00 0.00 37 1019.6
20260902232007 73 23 1.7 2.6 0.00 0.00 0.00 37 1019.6
20260902231508 74 27 0.0 1.7 0.00 0.00 0.00 36 1019.6
20260902231007 74 19 0.0 0.0 0.00 0.00 0.00 36 1019.6
20260902230508 75 19 0.0 0.0 0.00 0.00 0.00 36 1019.5
20260902225007 76 25 1.7 2.6 0.00 0.00 0.00 34 1019.3
20260902224507 76 0 1.7 2.6 0.00 0.00 0.00 34 1019.3
20260902224007 76 0 1.7 2.6 0.00 0.00 0.00 34 1019.3
20260902223508 76 355 2.6 4.3 0.00 0.00 0.00 34 1019.2
20260902222508 77 352 2.6 4.3 0.00 0.00 0.00 33 1019.3
20260902221008 79 23 2.6 4.3 0.00 0.00 0.00 31 1019.1
20260902220507 79 18 2.6 2.6 0.00 0.00 0.00 30 1019.0
20260902220008 80 303 0.9 2.6 0.00 0.00 0.00 30 1019.0
20260902215507 79 303 0.9 2.6 0.00 0.00 0.00 30 1019.0
20260902215007 79 303 0.9 1.7 0.00 0.00 0.00 31 1018.9
20260902214507 78 303 0.9 2.6 0.00 0.00 0.00 32 1018.9
20260902214007 78 303 0.0 1.7 0.00 0.00 0.00 32 1018.8
20260902213507 78 303 0.9 2.6 0.00 0.00 0.00 32 1018.8
20260902212507 79 298 0.9 2.6 0.00 0.00 0.00 31 1018.9
20260902212007 78 290 0.0 0.9 0.00 0.00 0.00 31 1018.9
20260902211007 79 354 0.0 0.0 0.00 0.00 0.00 32 1019.0
20260902210507 80 10 0.0 0.0 0.00 0.00 0.00 31 1018.9
20260902210009 80 10 0.0 0.0 0.00 0.00 0.00 31 1018.8
20260902205514 80 10 0.0 0.0 0.00 0.00 0.00 31 1018.8
20260902205008 80 10 0.9 1.7 0.00 0.00 0.00 31 1018.8
20260902204007 80 10 1.7 2.6 0.00 0.00 0.00 31 1018.6
20260902203507 81 10 1.7 2.6 0.00 0.00 0.00 30 1018.7
20260902203008 81 10 1.7 2.6 0.00 0.00 0.00 30 1018.7
20260902202508 81 10 1.7 2.6 0.00 0.00 0.00 30 1018.7
20260902202006 81 10 0.9 1.7 0.00 0.00 0.00 30 1018.6
20260902201507 81 10 1.7 2.6 0.00 0.00 0.00 30 1018.5
20260902200507 82 10 1.7 2.6 0.00 0.00 0.00 29 1018.4
20260902200007 82 10 1.7 2.6 0.00 0.00 0.00 29 1018.4
20260902194507 83 202 0.0 0.0 0.00 0.00 0.00 28 1018.2
20260902194007 84 202 0.0 0.0 0.00 0.00 0.00 28 1018.1
20260902193507 85 202 0.0 0.0 0.00 0.00 0.00 27 1018.0
20260902193007 86 202 0.0 0.0 0.00 0.00 0.00 26 1017.7
20260902191507 88 202 0.0 0.0 0.00 0.00 0.00 26 1017.7
20260902190507 89 202 0.0 0.0 0.00 0.00 0.00 26 1017.7
20260902190008 89 202 0.0 0.0 0.00 0.00 0.00 25 1017.7
20260902185507 90 202 0.0 0.0 0.00 0.00 0.00 25 1017.6
20260902185007 90 202 0.0 0.0 0.00 0.00 0.00 25 1017.7
20260902184507 91 202 0.9 2.6 0.00 0.00 0.00 24 1017.6
20260902184007 91 202 0.9 2.6 0.00 0.00 0.00 24 1017.5
20260902183507 91 203 1.7 2.6 0.00 0.00 0.00 24 1017.4
20260902182507 92 201 0.9 2.6 0.00 0.00 0.00 23 1017.3
20260902182007 93 199 2.6 4.3 0.00 0.00 0.00 23 1017.3
20260902181519 93 206 0.9 4.3 0.00 0.00 0.00 22 1017.3
20260902181009 93 239 0.0 1.7 0.00 0.00 0.00 23 1017.3
20260902180513 93 214 0.0 5.2 0.00 0.00 0.00 23 1017.3
20260902180008 93 202 2.6 4.3 0.00 0.00 0.00 22 1017.3
20260902175507 94 194 1.7 2.6 0.00 0.00 0.00 22 1017.3
20260902175006 94 231 0.0 2.6 0.00 0.00 0.00 22 1017.3
20260902174509 94 255 1.7 4.3 0.00 0.00 0.00 22 1017.3
20260902174007 94 202 2.6 5.2 0.00 0.00 0.00 22 1017.3
20260902173507 94 252 2.6 4.3 0.00 0.00 0.00 22 1017.3
20260902173007 94 256 3.5 5.2 0.00 0.00 0.00 22 1017.3
20260902172506 94 197 2.6 7.0 0.00 0.00 0.00 22 1017.2
20260902172007 94 246 1.7 6.1 0.00 0.00 0.00 22 1017.3
20260902171507 94 236 4.3 7.8 0.00 0.00 0.00 22 1017.3
20260902165506 94 215 2.6 6.1 0.00 0.00 0.00 22 1017.3
20260902165007 94 254 2.6 6.1 0.00 0.00 0.00 22 1017.2
20260902164507 94 201 4.3 7.0 0.00 0.00 0.00 22 1017.2
20260902164007 94 244 4.3 8.7 0.00 0.00 0.00 22 1017.2
20260902163507 93 250 5.2 10.4 0.00 0.00 0.00 22 1017.3
20260902163007 93 208 3.5 7.0 0.00 0.00 0.00 23 1017.2
20260902162507 93 205 3.5 7.8 0.00 0.00 0.00 23 1017.3
20260902162006 93 172 5.2 7.8 0.00 0.00 0.00 23 1017.3
20260902161507 93 188 3.5 7.8 0.00 0.00 0.00 23 1017.4
20260902155507 94 213 2.6 10.4 0.00 0.00 0.00 23 1017.6
20260902155007 93 219 2.6 10.4 0.00 0.00 0.00 23 1017.7
20260902154507 94 194 4.3 7.8 0.00 0.00 0.00 22 1017.7
20260902154007 94 240 4.3 7.8 0.00 0.00 0.00 22 1017.7
20260902153507 94 229 3.5 8.7 0.00 0.00 0.00 23 1017.8
20260902153007 94 216 3.5 6.1 0.00 0.00 0.00 22 1017.8
20260902152007 94 223 2.6 8.7 0.00 0.00 0.00 22 1017.8
20260902151006 93 290 3.5 7.8 0.00 0.00 0.00 23 1018.0
20260902145506 93 230 5.2 10.4 0.00 0.00 0.00 23 1018.1
20260902145006 93 339 2.6 7.8 0.00 0.00 0.00 23 1018.0
20260902144507 93 198 4.3 7.0 0.00 0.00 0.00 23 1018.1
20260902144007 93 212 3.5 7.8 0.00 0.00 0.00 23 1018.1
20260902143507 93 311 3.5 7.0 0.00 0.00 0.00 22 1018.2
20260902143007 93 288 1.7 7.0 0.00 0.00 0.00 21 1018.3
20260902142507 93 264 1.7 8.7 0.00 0.00 0.00 23 1018.4
20260902142007 93 211 4.3 10.4 0.00 0.00 0.00 23 1018.4
20260902141506 92 259 0.9 7.8 0.00 0.00 0.00 24 1018.4
20260902141007 91 3 1.7 7.0 0.00 0.00 0.00 25 1018.4
20260902140507 92 287 4.3 8.7 0.00 0.00 0.00 25 1018.5
20260902140007 92 236 6.1 10.4 0.00 0.00 0.00 25 1018.5
20260902135506 91 214 2.6 5.2 0.00 0.00 0.00 25 1018.6
20260902135006 91 181 3.5 8.7 0.00 0.00 0.00 25 1018.7
20260902134507 91 156 4.3 10.4 0.00 0.00 0.00 26 1018.7
20260902134006 91 214 2.6 10.4 0.00 0.00 0.00 26 1018.6
20260902133007 91 87 3.5 6.1 0.00 0.00 0.00 26 1018.7
20260902132506 91 195 3.5 7.8 0.00 0.00 0.00 26 1018.8
20260902132007 91 192 4.3 7.8 0.00 0.00 0.00 25 1018.7
20260902131006 91 246 2.6 5.2 0.00 0.00 0.00 25 1018.8
20260902130507 90 199 4.3 6.1 0.00 0.00 0.00 24 1018.8
20260902130007 90 230 1.7 6.1 0.00 0.00 0.00 25 1018.8
20260902125507 91 227 5.2 7.8 0.00 0.00 0.00 24 1018.9
20260902125007 90 221 2.6 7.0 0.00 0.00 0.00 24 1018.9
20260902124007 89 194 5.2 10.4 0.00 0.00 0.00 24 1019.0
20260902123507 89 193 4.3 7.0 0.00 0.00 0.00 24 1019.0
20260902123007 89 121 0.9 7.8 0.00 0.00 0.00 25 1019.0
20260902122006 89 176 3.5 6.1 0.00 0.00 0.00 27 1019.1
20260902121506 89 265 3.5 7.0 0.00 0.00 0.00 26 1019.2
20260902121007 88 201 2.6 7.0 0.00 0.00 0.00 28 1019.2
20260902120506 88 211 3.5 7.0 0.00 0.00 0.00 28 1019.3
20260902120007 88 52 1.7 2.6 0.00 0.00 0.00 29 1019.2
20260902115007 87 139 2.6 7.8 0.00 0.00 0.00 28 1019.3
20260902114506 87 170 4.3 7.0 0.00 0.00 0.00 30 1019.5
20260902114006 87 260 0.0 2.6 0.00 0.00 0.00 32 1019.5
20260902113007 86 228 2.6 5.2 0.00 0.00 0.00 33 1019.8
20260902112507 86 298 2.6 6.1 0.00 0.00 0.00 34 1019.8
20260902112006 85 214 2.6 6.1 0.00 0.00 0.00 35 1019.8
20260902111506 85 172 0.9 5.2 0.00 0.00 0.00 35 1019.9
20260902111006 85 183 1.7 4.3 0.00 0.00 0.00 33 1019.9
20260902110506 84 194 0.9 4.3 0.00 0.00 0.00 36 1020.0
20260902110008 84 194 0.9 2.6 0.00 0.00 0.00 37 1020.0
20260902105007 84 70 0.0 0.0 0.00 0.00 0.00 41 1020.0
20260902104006 83 227 1.7 2.6 0.00 0.00 0.00 42 1020.0
20260902103507 83 225 2.6 4.3 0.00 0.00 0.00 43 1020.0
20260902103007 82 292 1.7 2.6 0.00 0.00 0.00 44 1020.0
20260902102507 82 284 0.9 2.6 0.00 0.00 0.00 45 1020.0
20260902101506 81 188 1.7 4.3 0.00 0.00 0.00 49 1020.1
20260902100507 81 246 1.7 5.2 0.00 0.00 0.00 51 1020.2
20260902100008 81 220 1.7 6.1 0.00 0.00 0.00 51 1020.2
20260902095508 80 137 0.9 2.6 0.00 0.00 0.00 50 1020.2
20260902094508 79 103 0.9 4.3 0.00 0.00 0.00 52 1020.2
20260902094008 79 191 2.6 5.2 0.00 0.00 0.00 53 1020.2
20260902093508 78 193 1.7 4.3 0.00 0.00 0.00 55 1020.2
20260902093008 78 169 1.7 4.3 0.00 0.00 0.00 55 1020.1
20260902092509 78 162 2.6 5.2 0.00 0.00 0.00 56 1020.1
20260902092008 78 190 2.6 4.3 0.00 0.00 0.00 57 1020.1
20260902091008 77 189 1.7 5.2 0.00 0.00 0.00 56 1020.0
20260902090508 77 204 1.7 6.1 0.00 0.00 0.00 56 1020.0
20260902090008 76 177 1.7 6.1 0.00 0.00 0.00 56 1020.0
20260902085507 76 213 2.6 5.2 0.00 0.00 0.00 56 1020.0
20260902084008 76 188 0.9 2.6 0.00 0.00 0.00 53 1020.0
20260902083508 76 195 1.7 2.6 0.00 0.00 0.00 54 1019.9
20260902083009 76 182 0.0 0.0 0.00 0.00 0.00 54 1019.8
20260902082008 75 75 0.0 1.7 0.00 0.00 0.00 54 1019.8
20260902081508 74 75 0.9 2.6 0.00 0.00 0.00 54 1019.8
20260902081008 73 75 0.9 2.6 0.00 0.00 0.00 54 1019.7
20260902080508 73 31 1.7 2.6 0.00 0.00 0.00 55 1019.7
20260902080011 72 343 0.9 2.6 0.00 0.00 0.00 54 1019.6
20260902075507 72 5 1.7 2.6 0.00 0.00 0.00 54 1019.6
20260902075008 71 5 1.7 2.6 0.00 0.00 0.00 53 1019.4
20260902074508 71 20 0.9 1.7 0.00 0.00 0.00 53 1019.5
20260902073508 71 59 0.0 0.0 0.00 0.00 0.00 52 1019.5
20260902073008 71 59 0.0 0.0 0.00 0.00 0.00 52 1019.5
20260902071508 70 22 0.0 0.0 0.00 0.00 0.00 53 1019.5
20260902071008 69 22 0.0 0.0 0.00 0.00 0.00 54 1019.4
20260902070508 68 22 0.0 0.0 0.00 0.00 0.00 55 1019.2
20260902070009 67 22 0.0 0.0 0.00 0.00 0.00 56 1019.2
20260902065508 66 22 0.0 2.6 0.00 0.00 0.00 58 1019.1
20260902065008 66 22 1.7 2.6 0.00 0.00 0.00 58 1019.0
20260902064508 65 22 1.7 2.6 0.00 0.00 0.00 58 1019.0
20260902063508 64 22 0.0 0.0 0.00 0.00 0.00 59 1018.9
20260902063007 63 22 0.0 0.0 0.00 0.00 0.00 59 1019.0
20260902062508 62 22 0.0 0.0 0.00 0.00 0.00 61 1018.9
20260902062008 62 22 0.0 0.0 0.00 0.00 0.00 57 1018.9
20260902061509 63 22 0.0 0.0 0.00 0.00 0.00 56 1018.9
20260902061008 63 22 0.0 0.0 0.00 0.00 0.00 55 1018.9
20260902060508 64 22 0.0 0.0 0.00 0.00 0.00 54 1018.9
20260902060008 65 22 0.0 0.0 0.00 0.00 0.00 55 1018.9
20260902055508 65 22 0.0 0.0 0.00 0.00 0.00 55 1018.8
20260902055008 64 22 0.0 0.0 0.00 0.00 0.00 56 1018.8
20260902054007 64 22 0.0 0.0 0.00 0.00 0.00 55 1018.6
20260902053508 64 22 0.0 0.0 0.00 0.00 0.00 54 1018.4
20260902053008 65 22 0.0 0.0 0.00 0.00 0.00 54 1018.4
20260902052508 65 22 0.0 1.7 0.00 0.00 0.00 55 1018.4
20260902052008 65 17 2.6 2.6 0.00 0.00 0.00 54 1018.3
20260902051508 65 12 2.6 2.6 0.00 0.00 0.00 54 1018.3
20260902051008 65 24 2.6 2.6 0.00 0.00 0.00 54 1018.3
20260902050508 65 24 2.6 2.6 0.00 0.00 0.00 53 1018.2
20260902050009 65 24 0.9 1.7 0.00 0.00 0.00 52 1018.1
20260902045508 65 24 0.9 1.7 0.00 0.00 0.00 52 1018.1
20260902044508 65 24 1.7 2.6 0.00 0.00 0.00 53 1018.1
20260902044008 65 18 2.6 4.3 0.00 0.00 0.00 52 1017.9
20260902043508 65 10 3.5 5.2 0.00 0.00 0.00 51 1017.9
20260902043008 65 8 4.3 6.1 0.00 0.00 0.00 51 1017.9
20260902042507 65 2 2.6 4.3 0.00 0.00 0.00 50 1017.8
20260902041007 65 13 1.7 2.6 0.00 0.00 0.00 49 1017.8
20260902040507 65 13 1.7 2.6 0.00 0.00 0.00 49 1017.8
20260902040008 65 13 1.7 2.6 0.00 0.00 0.00 49 1017.9
20260902035507 65 11 2.6 4.3 0.00 0.00 0.00 47 1017.9
20260902035008 65 11 2.6 4.3 0.00 0.00 0.00 47 1018.0
20260902034507 65 11 2.6 4.3 0.00 0.00 0.00 46 1017.9
20260902034008 65 11 2.6 4.3 0.00 0.00 0.00 46 1017.9
20260902033508 65 11 1.7 4.3 0.00 0.00 0.00 44 1017.9
20260902033008 66 11 2.6 4.3 0.00 0.00 0.00 44 1017.9
20260902032508 66 11 2.6 2.6 0.00 0.00 0.00 44 1017.9
20260902032008 66 11 0.0 0.0 0.00 0.00 0.00 43 1018.0
20260902031007 67 11 0.0 0.0 0.00 0.00 0.00 42 1018.0
20260902030508 67 11 0.9 1.7 0.00 0.00 0.00 41 1017.9
20260902030008 68 11 0.9 1.7 0.00 0.00 0.00 41 1017.9
20260902025507 68 11 1.7 2.6 0.00 0.00 0.00 40 1017.9
20260902025008 68 11 2.6 2.6 0.00 0.00 0.00 41 1017.8
20260902024507 67 11 2.6 2.6 0.00 0.00 0.00 41 1017.7
20260902024008 67 11 2.6 2.6 0.00 0.00 0.00 41 1017.7
20260902023508 67 11 0.0 0.0 0.00 0.00 0.00 39 1017.7